Find Starlink 30295

NORAD ID: 57683 Int'l Des: 2023-124 Owner: SPXS Country: US Constellation: starlink operational
LEOCIRCULAR

Current View

Loading 3D Globe...

About Starlink 30295

Starlink 30295 (NORAD 57683) is a starlink constellation satellite (v2 mini) launched Aug 22, 2023 by SPXS of US. It operates in LEO, CIRCULAR orbit with a mass of 730.00 kg.

About Starlink 30295

Description loading...

Upcoming Passes

Passes for default location (London). Set your location on the main map for personalized predictions.

Altitude History

Loading altitude history...

Two-Line Element Set

1 57683U 23124W 26171.16851490 .00000867 00000-0 41385-4 0 9998
2 57683 53.1602 91.0642 0001601 89.4136 270.7048 15.30203299159253
Epoch: Jun 20, 2026 • Age: 13 hours

Current Status

Altitude 475.2 km
Velocity 7.63 km/s
Sub-Earth Point 20.32°N, 84.72°E
Launch Date Aug 22, 2023
Age 2.8 years
Type internet

Technical Details

Classification Payload
Mass 730.00 kg
Dry Mass 700.00 kg
Total Mass 730.00 kg
Length 0.30 m
Diameter 4.10 m
Span 29.00 m
Shape Box + pan
Manufacturer SPXS
Bus Type Starlink V2M
Phase Status In Orbit
Owner/State SPXS/US

Most Searched